Wind_Speed
16 16 16 16 17 19 21 22 22 21 20 19 19 19 19 18 17 17 17 18 19 19 20 19 19 19 18 18 17 17 19 21 24 24 22 21 20 20 20 20 19 20 20 20 19 18 18 18 18 17 16 15 14 13 11 10 8 7 5 5 5 6 6 6 6 5 4 4 3 2 1 0 1 1 1 1 1 1 0 1 2 2 3 4 4
16 17 17 16 16 17 19 21 22 23 24 23 21 20 20 20 20 20 19 19 19 20 21 21 21 21 21 21 20 18 17 19 23 25 25 24 22 21 22 23 22 21 22 21 21 20 20 19 19 19 18 17 16 15 14 13 11 9 8 7 6 6 7 7 6 6 5 4 3 2 2 1 0 1 1 1 1 1 1 1 2 3 4 4 5
16 17 17 17 18 19 20 21 21 23 24 25 24 22 21 21 21 22 21 21 21 21 21 22 23 23 22 22 22 21 19 17 20 25 27 26 25 23 23 24 24 24 23 23 23 22 22 21 21 20 20 19 18 17 16 15 13 12 10 9 8 7 7 7 7 6 6 5 4 3 3 2 1 0 1 1 1 1 1 1 2 3 4 5 5
18 18 18 19 20 20 21 22 23 23 24 24 25 24 23 22 22 23 23 23 22 21 21 22 23 23 22 22 22 23 22 19 18 21 26 28 27 26 25 25 25 26 26 25 24 24 24 23 22 22 21 21 20 19 17 17 16 14 12 11 10 9 8 8 8 7 6 6 5 5 4 3 2 1 1 1 0 0 1 1 2 3 4 5 6
20 20 20 21 22 22 22 23 24 24 25 26 26 25 24 24 23 22 24 25 25 22 22 22 23 23 23 22 22 23 23 22 19 18 22 28 29 29 28 27 26 27 27 27 27 26 25 25 24 24 23 22 22 21 19 18 17 16 15 13 12 11 10 9 8 8 7 6 6 6 5 5 3 2 2 2 1 1 1 1 2 3 4 5 6
19 20 21 22 23 23 23 24 24 25 26 27 27 26 25 25 24 22 23 26 26 24 24 24 24 25 25 24 23 24 24 23 22 19 19 24 29 31 30 29 28 28 28 29 29 28 27 27 26 25 25 24 23 22 21 20 19 18 17 16 15 13 12 11 10 9 8 7 7 7 6 6 5 4 4 3 3 2 2 1 1 2 4 5 6
20 21 22 23 24 24 24 24 24 25 26 27 27 27 27 27 25 25 25 25 25 26 26 25 25 26 28 27 26 25 24 24 23 22 20 21 24 29 32 33 31 30 29 29 30 30 30 29 28 27 26 26 25 24 23 22 21 20 18 17 17 16 15 13 12 11 10 9 8 8 7 7 6 6 5 5 4 4 3 3 2 2 3 4 5
22 22 23 24 25 25 25 25 24 24 25 26 26 27 28 28 27 26 27 26 25 25 27 27 28 29 30 30 30 28 26 26 25 24 23 22 22 26 31 34 34 33 32 31 30 30 30 30 30 30 28 28 27 26 25 24 23 22 20 19 18 18 17 16 14 13 12 11 10 9 8 8 8 7 6 6 6 5 4 4 3 2 2 3 3
23 23 25 25 26 27 27 28 26 25 24 25 26 27 28 28 28 27 28 28 26 25 26 28 29 31 33 33 32 31 29 28 28 26 25 25 24 24 27 32 35 36 34 33 32 31 31 31 31 31 30 30 29 28 27 26 26 24 23 21 20 19 18 18 17 16 14 13 12 11 10 9 9 9 8 7 7 6 6 5 4 3 2 2 2
23 24 25 27 28 29 30 30 29 28 27 26 26 27 29 28 28 28 28 28 26 26 27 28 28 30 34 35 34 33 32 31 30 28 27 27 28 27 26 29 32 35 36 36 34 33 32 32 31 31 31 31 31 30 29 28 27 27 25 24 22 21 20 19 19 18 17 16 14 13 12 11 10 10 10 9 8 7 7 6 5 4 3 3 2
24 24 24 26 27 28 29 30 31 30 29 29 28 28 29 29 29 29 29 28 27 28 28 29 28 28 31 34 35 35 34 35 33 30 29 29 30 30 29 28 29 31 34 36 36 36 34 33 33 32 32 32 32 31 31 30 29 28 27 26 25 23 22 21 20 20 19 18 17 16 14 13 12 12 11 10 9 9 8 7 7 6 5 4 3
23 24 24 25 26 27 28 29 30 31 31 32 31 30 31 31 29 30 30 29 28 29 30 30 28 26 27 31 35 36 36 38 36 33 32 31 31 32 32 30 29 29 31 33 35 36 35 35 35 35 34 34 33 32 31 31 30 30 29 28 28 26 25 23 22 22 21 20 19 18 17 15 15 14 13 12 11 10 9 9 8 7 6 5 4
22 24 25 25 26 27 28 29 30 31 32 33 33 33 34 32 30 31 31 29 29 29 30 31 29 27 28 31 35 36 37 38 37 35 35 34 33 33 34 33 31 30 31 32 33 35 35 36 36 37 37 36 35 34 33 32 31 31 31 30 30 29 28 26 24 23 22 22 21 20 19 17 16 16 15 15 14 13 11 10 9 8 7 6 5
23 24 25 26 27 29 30 31 32 33 33 35 35 35 35 34 32 32 31 29 30 31 31 31 29 29 31 32 33 34 36 38 36 35 35 35 34 34 34 35 34 32 32 32 32 33 34 35 36 37 38 37 36 35 34 33 32 32 32 32 32 31 30 28 26 25 24 23 22 22 20 19 18 17 17 16 16 15 14 12 11 10 9 8 7
24 24 25 27 28 30 31 32 34 35 36 37 38 38 37 36 35 34 32 30 30 32 33 31 30 31 34 33 32 33 34 34 35 36 36 35 35 35 35 36 36 35 34 32 31 32 32 33 35 35 37 37 37 36 36 35 33 33 33 33 33 32 32 31 29 27 26 25 24 23 22 21 20 18 17 17 16 16 15 14 13 12 11 9 8
26 27 27 28 30 31 32 33 34 36 37 38 39 40 40 39 38 37 35 33 31 32 34 33 31 33 35 34 35 35 32 32 35 37 38 36 35 36 36 35 36 37 36 34 32 32 32 32 33 34 35 36 36 36 36 36 36 35 34 34 34 34 33 32 31 30 28 27 26 25 24 22 21 20 19 18 17 17 16 15 14 13 12 11 10
26 28 29 30 32 33 34 35 36 37 38 39 39 40 41 40 41 38 35 35 33 34 35 34 34 36 35 34 36 36 32 34 38 37 38 37 36 36 36 36 36 38 39 37 35 34 33 33 33 33 34 35 35 36 37 38 38 37 35 35 35 35 35 34 33 32 31 29 28 26 25 24 22 21 20 19 19 18 17 16 15 14 13 13 12
27 28 30 31 32 34 35 36 37 38 39 40 40 40 40 41 41 37 34 35 35 35 35 36 36 37 37 36 36 37 34 36 38 37 37 38 37 37 37 38 38 39 40 40 38 36 35 34 34 34 34 34 34 35 36 37 38 38 36 36 36 37 37 35 34 34 33 32 30 28 26 25 24 22 21 21 20 19 19 18 16 15 14 14 13
27 28 30 31 33 35 36 37 39 40 40 41 41 41 40 40 40 38 37 37 36 36 36 37 37 37 39 39 38 38 37 37 38 37 39 40 39 39 39 40 40 39 40 40 40 38 37 36 35 34 34 34 34 34 35 36 38 38 38 37 37 38 38 37 36 35 35 34 33 31 29 27 26 24 23 22 21 21 20 19 18 17 16 15 14
28 29 31 32 34 36 37 39 40 41 41 41 41 41 40 39 38 38 39 39 38 37 37 38 38 37 39 41 40 39 39 40 39 39 40 41 41 40 41 42 41 41 41 40 41 39 37 38 36 34 34 34 33 33 33 34 36 38 39 39 38 38 39 39 38 37 37 36 35 33 31 29 28 27 25 23 22 22 21 20 19 18 17 17 16
29 30 32 33 35 37 39 40 41 42 42 42 41 41 40 38 38 38 38 38 38 38 37 37 38 38 40 42 42 40 41 42 40 40 41 41 41 39 40 44 44 42 41 41 42 41 39 38 37 36 36 35 34 33 33 33 34 37 38 39 40 39 39 40 40 39 38 38 37 36 34 32 30 29 27 25 24 23 22 22 21 20 19 19 18
29 31 32 34 36 38 40 41 42 43 43 42 41 41 39 37 36 37 37 38 38 38 39 37 38 38 40 42 43 43 43 43 42 40 40 42 44 40 39 45 46 43 41 40 41 42 41 39 38 37 36 35 36 35 34 33 33 35 38 39 40 41 40 41 42 42 40 39 39 38 36 34 32 31 29 28 26 25 24 23 22 22 21 20 20
31 32 34 35 37 38 41 42 44 45 44 43 42 41 40 37 35 35 37 38 37 38 39 38 37 37 39 40 42 44 45 43 42 41 40 42 45 43 41 45 48 45 43 42 43 44 44 41 40 39 37 36 37 38 36 35 35 35 37 39 40 42 42 42 43 44 43 41 40 39 38 37 35 33 32 30 29 27 26 25 24 24 23 22 21
33 35 36 37 38 39 41 43 45 46 46 44 43 42 41 38 36 35 36 37 37 38 38 38 38 37 37 38 40 44 45 44 43 43 42 43 45 44 42 44 47 47 45 44 45 46 46 44 43 43 40 36 36 39 38 37 36 35 36 38 40 41 42 42 43 44 45 43 42 41 40 39 37 35 34 32 31 29 28 27 26 25 24 23 22
35 36 38 39 40 40 41 43 44 46 46 45 44 42 41 40 38 36 36 37 37 37 38 38 37 37 37 37 38 41 43 45 45 45 44 44 45 45 42 42 45 47 46 44 45 47 47 46 46 46 45 39 36 39 40 38 37 36 36 37 39 41 42 43 42 42 44 45 43 42 41 40 39 38 36 34 33 32 30 29 28 27 26 24 23
35 37 38 40 41 41 42 43 44 45 46 45 44 42 42 42 41 38 37 37 37 37 37 37 37 38 38 37 36 37 41 43 44 45 46 45 46 46 45 44 45 46 44 42 45 48 47 46 47 48 47 42 37 39 41 40 38 38 37 37 37 39 42 43 42 42 43 45 45 44 42 42 41 40 38 36 35 34 32 31 30 29 27 26 25
36 38 39 41 41 42 42 43 44 45 46 45 44 42 41 41 41 40 38 36 36 36 37 36 36 37 38 38 37 37 39 41 42 44 46 46 46 46 46 46 47 47 45 43 46 49 47 47 49 49 48 44 39 39 42 42 41 39 38 38 37 37 39 42 43 42 42 43 46 46 44 43 43 42 40 38 36 35 34 32 31 31 30 29 27
37 39 40 42 42 42 43 43 43 44 45 45 44 42 40 40 41 40 38 37 35 35 36 36 35 36 36 37 37 38 40 41 42 42 43 45 47 47 46 45 46 48 46 44 46 49 49 48 50 50 49 45 40 39 43 43 42 40 39 38 38 36 37 39 42 43 42 42 45 46 46 45 44 43 42 40 38 36 35 34 33 33 32 31 29
38 40 41 43 43 43 44 44 44 44 45 46 45 43 41 40 40 40 39 38 36 35 35 36 36 35 35 36 36 38 40 42 44 42 40 42 45 47 47 45 45 47 49 47 45 48 49 48 49 50 50 48 42 40 44 44 42 42 40 38 38 36 36 37 40 42 43 43 43 46 47 46 45 44 43 42 40 38 36 36 35 35 34 32 31
39 41 42 43 44 44 45 45 44 45 45 46 46 44 42 40 40 41 40 39 38 35 34 35 37 37 35 35 35 36 38 42 45 44 42 42 42 45 48 47 47 47 49 49 46 45 47 48 48 49 49 49 45 42 45 45 42 42 41 38 37 37 37 37 38 41 43 43 43 44 46 47 46 45 44 43 41 40 38 38 37 36 35 34 33
40 42 43 45 45 46 46 46 46 46 46 46 46 45 42 41 41 41 41 41 39 37 35 35 36 37 37 36 36 36 37 41 44 46 46 45 44 46 48 48 49 48 47 48 46 44 46 47 48 49 49 49 47 45 45 45 44 42 41 39 38 38 38 37 37 40 43 44 43 43 45 47 47 46 45 44 43 42 41 40 38 37 36 36 35
42 43 45 46 47 47 48 48 47 48 47 47 47 45 42 40 41 41 41 41 41 39 37 36 36 37 38 38 37 38 39 40 42 45 47 47 47 48 49 49 49 48 47 48 48 46 46 47 48 49 49 49 48 47 46 46 46 44 41 40 39 38 38 37 37 38 41 43 43 42 43 46 48 47 46 45 45 44 43 41 40 39 38 37 36
42 44 46 47 48 48 49 48 48 49 49 49 48 45 42 41 41 40 40 40 40 40 40 38 37 38 39 40 39 38 39 40 41 43 45 47 48 49 50 50 49 49 49 48 48 48 46 46 49 50 49 47 47 47 46 45 46 44 41 40 39 39 38 37 37 37 40 42 42 41 41 44 47 47 46 46 46 46 44 43 41 40 39 38 38
43 45 47 48 49 49 49 49 49 49 50 49 48 45 43 41 40 39 38 38 38 39 40 39 38 38 39 41 40 39 38 39 41 43 44 46 49 50 51 50 49 50 51 47 46 47 46 45 49 51 49 47 45 45 46 45 44 44 42 39 39 38 38 38 37 37 38 41 42 41 40 42 45 47 47 47 47 48 46 44 43 42 41 40 40
45 46 48 49 50 49 49 49 50 50 50 49 47 45 43 41 40 39 37 36 36 37 38 38 38 37 39 41 42 41 40 39 39 42 44 45 47 50 51 51 49 49 51 49 45 45 46 46 48 51 51 48 44 43 45 45 44 43 42 40 38 39 39 39 38 37 37 39 41 41 39 40 43 46 47 47 48 48 47 46 44 44 43 43 43
46 47 48 49 50 50 49 50 50 50 49 47 46 45 43 42 40 38 36 34 34 35 36 36 37 37 37 40 42 42 41 41 40 41 43 44 46 49 51 51 50 48 49 51 49 46 47 47 48 51 52 50 45 43 44 44 44 43 42 40 39 39 40 39 39 37 36 37 40 41 41 40 42 44 46 47 48 48 47 46 46 45 46 45 45
47 48 49 49 50 51 50 50 51 49 47 46 45 44 43 41 39 38 36 34 33 33 33 35 36 36 37 38 41 41 40 41 42 42 43 43 44 47 49 51 51 48 47 49 50 49 48 48 49 51 52 50 45 44 44 44 43 43 42 41 40 40 40 40 40 37 36 37 39 41 42 41 41 43 45 47 48 48 48 47 47 47 46 46 46
48 48 49 49 51 51 51 51 50 47 46 46 45 42 41 39 38 37 35 33 33 32 31 33 35 36 37 38 39 40 40 40 41 42 42 43 43 45 47 48 50 50 48 48 49 49 49 49 49 51 52 50 47 45 44 43 43 44 43 41 42 41 40 41 41 40 38 37 38 40 41 42 43 43 44 45 47 48 48 48 48 48 47 46 46
48 49 50 50 51 52 51 51 49 46 44 44 43 41 39 37 36 36 34 33 32 31 30 32 34 36 37 38 38 39 39 39 38 39 40 40 42 43 44 46 49 51 50 49 49 48 49 50 50 50 51 51 49 46 44 43 43 45 44 43 43 43 41 40 41 42 41 38 38 40 40 41 43 44 44 45 45 46 47 48 48 48 47 46 45
48 49 50 51 52 52 51 50 48 46 43 42 42 40 37 36 35 34 33 32 31 30 30 31 33 35 36 37 38 38 38 37 36 36 36 36 38 41 43 45 48 51 51 49 47 46 48 51 51 51 52 52 50 47 45 44 44 44 45 45 43 42 40 40 42 44 42 40 39 39 39 39 41 42 43 43 43 44 45 46 47 47 46 45 44
48 49 50 51 51 51 50 49 47 44 42 41 40 38 36 34 33 33 32 31 29 29 29 31 33 34 35 37 38 38 37 36 35 35 34 34 36 38 41 43 46 50 52 51 48 45 47 51 52 53 53 51 48 46 46 45 43 42 45 46 44 42 41 41 42 43 43 41 39 38 38 38 38 39 41 41 42 43 45 45 45 45 45 44 44
49 49 50 50 51 50 49 48 46 43 40 39 38 37 35 34 32 31 30 29 29 28 28 30 32 33 33 36 38 37 35 35 35 35 34 33 34 35 38 41 43 47 50 52 51 47 46 49 52 53 53 50 47 46 46 45 42 42 45 46 43 43 42 41 41 42 42 41 39 38 39 39 38 38 39 39 40 43 44 44 43 44 44 44 43
49 49 49 50 50 49 48 46 44 41 38 37 36 35 34 32 31 29 28 28 28 28 28 29 31 32 33 36 38 36 33 33 35 35 33 33 33 34 35 37 40 44 47 49 51 50 47 47 50 53 52 49 46 46 47 46 43 42 45 45 45 45 43 41 40 41 42 42 40 40 40 40 38 37 38 39 40 42 43 43 43 43 43 43 42
48 48 49 49 48 47 46 44 42 39 37 35 34 33 31 30 29 28 28 28 28 27 28 28 30 32 34 35 37 35 32 31 33 34 33 32 33 33 34 35 37 41 44 47 49 50 48 46 48 51 50 48 45 45 45 46 44 42 44 45 45 45 44 42 41 41 43 44 44 43 42 40 39 38 37 38 39 40 41 41 41 42 42 42 41
48 48 48 48 47 46 44 42 39 37 35 34 33 32 30 29 28 28 28 28 27 27 28 29 30 33 34 36 35 33 32 31 32 33 33 32 32 33 33 33 35 37 40 45 48 48 48 47 48 48 47 46 46 45 44 45 45 43 44 45 45 45 44 43 42 42 44 47 46 45 43 41 40 39 36 36 37 38 38 38 39 40 42 41 40
47 47 48 47 46 44 42 39 37 36 34 33 32 30 29 28 27 27 27 27 27 28 28 29 31 33 34 36 35 32 30 31 30 30 31 32 33 33 32 31 32 35 38 42 46 47 47 47 47 46 43 42 44 45 44 45 45 44 43 44 44 44 44 44 45 44 45 47 47 45 44 43 40 37 35 36 36 37 37 37 38 39 40 40 39
47 47 47 46 44 41 39 37 36 35 34 33 30 29 28 27 27 26 26 26 26 27 28 28 30 32 33 35 35 32 29 29 28 26 28 31 32 31 31 30 30 33 37 39 43 45 46 45 45 45 44 40 37 40 44 45 44 43 43 44 44 45 45 44 45 45 45 46 45 43 43 43 41 39 36 36 36 36 35 36 37 38 38 39 39
46 46 45 43 42 39 37 36 36 35 34 32 29 28 27 26 26 26 25 26 26 27 28 28 29 31 32 34 35 32 29 28 27 25 25 28 30 30 30 30 30 31 35 38 40 42 44 44 44 45 47 45 38 37 40 43 43 43 44 44 45 45 44 43 44 45 45 44 42 42 43 44 43 42 38 36 35 35 35 35 36 37 38 39 39
45 45 43 41 40 37 35 35 35 34 33 31 28 27 26 25 25 25 25 26 26 26 27 29 29 30 32 34 35 33 30 27 25 24 23 24 29 30 29 29 30 31 33 36 38 40 41 42 42 42 45 47 44 40 40 42 44 45 45 43 44 45 45 44 44 45 45 43 41 42 44 44 44 43 41 38 36 35 36 36 36 37 39 39 39
44 42 40 39 38 35 34 35 34 32 31 29 26 25 25 24 25 25 25 26 26 26 27 28 29 30 31 33 35 33 30 27 24 23 23 22 26 29 27 27 30 32 33 35 37 38 39 40 41 42 43 45 45 43 42 42 43 45 44 42 43 44 44 44 45 46 45 43 41 42 44 44 45 44 42 40 38 36 36 37 37 38 39 40 39
42 39 38 37 36 33 33 33 32 30 29 28 26 25 25 24 24 24 25 26 26 26 26 28 29 30 31 33 34 34 31 28 24 21 21 20 22 25 26 27 30 32 32 34 35 36 37 38 39 41 42 43 44 44 44 43 43 44 43 42 44 44 44 44 45 46 45 42 41 42 43 44 46 46 44 42 40 38 37 38 38 39 40 41 39
Wind_Direction
298 298 300 301 298 295 292 288 286 285 284 284 285 285 284 282 279 277 276 274 271 270 270 269 266 264 263 263 264 266 263 257 252 250 249 248 245 242 241 239 236 235 232 229 227 228 230 231 230 229 229 230 231 233 232 229 222 214 216 227 241 248 250 252 252 249 248 246 237 231 229 252 1 349 331 336 357 6 66 104 91 87 92 99 106
302 301 302 302 301 301 299 293 287 286 286 284 283 282 281 281 279 276 274 272 271 269 269 270 269 266 265 265 264 265 267 263 254 248 247 246 244 242 240 239 236 235 234 233 231 230 230 231 232 232 231 231 231 233 235 235 231 223 218 220 229 241 249 251 251 248 245 243 236 225 214 179 83 351 335 335 345 355 20 91 90 88 92 98 104
303 304 304 302 302 303 302 296 289 289 291 287 287 287 282 280 279 277 274 270 269 267 267 268 268 268 268 268 268 265 264 265 259 249 245 245 245 243 241 240 238 235 235 235 234 234 233 232 232 233 233 233 232 232 234 237 237 232 225 222 223 230 241 249 251 249 245 237 228 219 216 203 168 315 308 321 343 355 20 80 92 92 95 98 103
304 306 305 301 300 300 298 295 292 293 294 291 289 287 285 283 280 277 275 270 266 264 265 265 265 267 269 270 270 269 265 263 262 253 246 244 244 243 242 243 241 238 236 235 235 236 236 236 235 234 234 235 235 233 233 236 239 238 234 229 226 226 230 241 248 250 248 239 226 216 214 220 221 230 249 249 290 354 47 87 90 96 100 102 106
308 309 307 303 301 300 297 295 294 295 296 294 291 286 284 284 282 279 276 272 267 263 262 262 261 263 266 268 269 269 267 262 261 258 250 244 243 243 243 243 244 243 240 237 236 236 237 237 237 237 236 236 236 236 234 235 237 239 239 236 233 230 228 233 241 246 246 242 232 220 212 216 223 227 224 219 211 191 139 114 92 96 101 105 109
311 310 307 304 301 300 300 298 298 298 298 297 295 290 285 284 282 282 281 275 270 265 262 262 261 261 262 262 264 267 267 264 260 258 255 249 244 243 243 242 242 243 243 242 239 238 238 238 238 238 238 237 237 238 238 236 236 237 239 239 238 235 232 232 234 239 241 240 236 227 219 215 219 226 223 212 205 194 175 153 117 102 104 106 109
313 311 307 305 303 302 300 299 298 298 298 297 296 294 291 288 284 283 285 280 274 269 264 263 262 262 261 260 261 262 264 264 260 255 254 253 249 245 243 243 241 241 241 243 243 241 239 238 239 239 240 240 239 239 240 239 238 237 237 239 239 239 237 234 233 235 237 237 236 231 227 223 220 224 224 216 205 195 186 175 166 136 116 113 113
315 312 308 306 305 304 301 300 298 297 296 295 294 294 294 293 288 284 285 282 276 272 268 265 264 264 263 261 261 261 261 261 260 255 250 250 251 248 245 244 242 241 240 241 243 243 242 240 240 240 240 241 240 240 240 241 241 239 238 237 238 239 240 239 235 234 235 235 234 232 231 229 225 224 224 219 210 201 192 186 186 177 150 129 119
315 312 309 307 305 305 304 304 303 299 294 293 292 292 293 293 291 285 283 281 277 274 272 268 267 267 263 260 262 261 258 258 258 256 252 249 249 249 246 244 243 242 242 241 241 242 244 243 242 241 241 242 242 241 240 241 241 241 240 238 236 237 238 241 240 237 235 235 234 233 232 231 229 224 220 218 215 208 198 192 193 193 187 167 139
315 312 310 309 309 309 308 307 307 302 297 295 293 292 293 292 291 287 283 281 277 275 274 271 270 271 266 261 259 258 257 257 256 257 256 251 249 248 247 245 244 242 242 242 241 241 243 244 245 243 243 242 242 242 241 241 241 241 241 240 238 236 235 238 241 240 238 236 235 234 232 231 231 227 221 215 214 214 207 199 196 199 206 209 205
315 313 312 311 310 310 309 309 309 306 304 301 296 291 292 293 290 288 285 281 276 274 274 271 270 273 272 264 259 258 258 258 257 257 258 255 251 249 247 246 246 243 241 242 242 241 241 243 245 245 244 243 243 243 243 242 242 242 242 242 241 239 237 235 237 240 240 239 237 235 233 230 230 230 226 220 215 214 213 210 203 201 207 218 227
316 315 315 313 311 311 311 311 310 309 308 305 300 295 295 294 289 287 286 283 278 274 272 272 271 273 273 266 260 257 256 258 260 259 260 259 254 251 249 248 248 246 243 241 242 242 242 242 244 245 246 245 243 243 244 243 242 242 242 242 242 241 239 237 235 237 239 240 240 238 236 233 229 229 229 228 224 218 215 216 214 209 209 218 231
322 320 320 319 317 316 315 314 313 311 309 306 303 301 299 296 291 287 285 283 282 277 270 271 272 272 269 264 262 258 255 258 260 260 261 259 256 253 250 249 249 247 245 242 241 243 243 243 244 246 247 246 245 243 243 243 242 242 242 242 242 241 240 239 237 236 237 239 241 241 240 238 234 231 230 231 230 228 223 220 221 220 217 221 232
327 324 322 323 322 320 319 318 316 314 312 308 305 304 301 296 293 290 285 281 282 278 272 271 273 272 269 266 267 263 258 258 257 258 259 256 255 254 251 249 250 249 246 243 241 242 244 244 244 245 246 247 246 245 244 243 242 241 240 240 241 241 241 240 239 238 237 238 240 241 242 241 240 236 234 233 234 234 233 229 227 228 227 228 233
328 325 323 322 322 321 320 319 317 315 314 310 308 306 302 298 295 293 287 282 280 277 274 274 274 273 271 269 269 265 261 262 260 257 256 253 251 252 251 249 249 249 247 244 242 242 243 244 244 244 245 246 247 247 246 244 242 240 238 238 239 240 241 240 240 239 238 238 239 240 241 241 242 241 239 238 238 238 238 237 235 233 234 234 235
327 326 325 324 322 321 320 318 316 315 313 311 309 306 303 299 296 294 290 287 282 278 277 276 275 272 270 269 268 266 265 265 261 255 252 250 248 249 250 249 248 248 247 246 244 242 242 244 246 246 245 246 246 246 247 245 242 241 239 237 237 238 239 240 240 239 238 237 238 239 241 241 242 242 241 241 240 240 240 240 238 235 234 233 234
324 325 325 324 323 321 320 319 317 315 314 312 310 306 303 300 296 292 288 286 283 279 278 276 274 271 269 268 266 267 266 260 258 255 251 249 247 248 251 250 249 248 246 245 245 245 244 244 245 247 247 246 245 245 245 244 243 242 241 238 236 236 237 238 239 239 238 237 237 238 240 241 242 242 242 242 241 241 241 241 240 237 235 233 232
321 322 322 321 320 320 319 317 316 316 315 314 312 309 305 300 296 290 285 284 280 277 275 272 272 273 272 269 266 268 266 260 259 256 251 246 245 250 252 250 249 248 245 244 245 248 247 246 245 245 248 248 247 245 244 244 244 242 241 239 238 235 235 236 237 238 239 238 236 236 237 239 241 242 242 242 242 241 241 242 241 240 238 237 234
319 319 320 320 319 319 318 317 316 315 314 314 312 311 308 301 295 291 287 285 280 276 273 271 270 270 272 271 268 268 267 264 261 257 253 246 244 251 253 250 249 247 245 242 245 249 246 245 245 244 247 248 248 247 245 245 244 242 240 239 239 236 234 234 235 236 237 237 237 235 234 235 238 240 241 242 242 242 241 242 242 242 242 241 240
317 319 320 320 319 319 318 317 316 315 315 314 313 312 309 303 296 292 289 287 283 279 275 272 269 266 267 269 268 268 267 266 263 257 256 250 247 252 252 248 248 248 245 241 243 247 244 243 244 244 246 247 248 248 247 246 244 242 239 238 238 238 236 234 234 235 236 236 236 235 233 232 234 237 238 240 242 243 242 242 243 243 243 244 245
317 319 320 320 319 319 318 317 316 315 315 314 313 312 310 305 299 294 290 287 285 283 278 274 271 267 265 265 266 266 265 265 263 260 259 254 251 253 249 245 245 248 248 244 243 245 244 243 242 244 246 246 247 248 248 247 245 243 240 237 237 238 237 235 233 234 235 235 235 236 234 232 232 234 236 237 239 241 243 243 243 243 244 245 246
317 318 319 319 320 319 319 319 318 317 316 315 313 312 310 306 300 294 292 289 286 284 282 278 274 270 266 265 265 264 263 264 263 261 262 259 256 254 249 246 245 246 248 248 248 246 243 243 241 242 245 246 246 248 248 247 246 244 241 238 236 237 237 237 234 233 234 235 235 235 235 234 232 233 235 236 237 239 241 242 243 243 244 244 245
317 318 319 320 321 321 321 321 320 318 317 315 314 312 310 307 300 294 292 291 288 285 283 281 278 273 269 266 265 263 263 264 264 262 261 261 261 255 250 249 246 245 248 250 250 247 243 242 241 240 242 246 247 247 247 246 245 244 241 239 237 236 236 237 236 234 233 233 234 234 234 234 233 233 234 236 237 237 239 241 242 242 243 244 244
317 318 319 320 321 322 323 323 321 320 317 316 314 312 310 307 301 296 293 291 288 286 284 283 281 278 274 270 267 264 263 262 261 261 259 259 262 256 249 249 247 245 247 249 249 247 242 241 241 240 241 245 248 247 246 245 244 244 242 240 238 237 236 236 237 235 234 233 233 233 234 233 233 233 233 234 236 237 238 240 241 242 242 244 244
316 317 318 319 321 323 324 324 323 320 318 316 314 312 309 307 303 298 294 291 288 285 284 284 282 280 277 274 271 268 266 263 260 260 258 257 260 257 249 248 245 243 245 247 247 246 242 240 241 240 241 245 247 245 245 245 243 244 243 241 239 238 237 236 237 237 235 234 233 233 233 233 233 234 233 234 235 237 238 240 241 242 243 244 245
314 314 316 318 319 322 323 324 323 321 318 315 313 310 308 306 303 299 295 290 287 285 284 283 281 280 277 275 273 271 268 266 262 259 258 256 258 257 252 248 245 244 246 246 245 245 241 239 241 241 241 244 246 242 243 244 243 243 243 242 240 239 239 237 237 237 236 235 234 234 234 234 234 234 234 235 235 236 237 239 241 243 244 244 245
312 313 314 316 318 320 322 323 322 320 317 314 312 309 306 303 301 299 295 290 287 284 283 283 281 279 278 275 272 270 269 268 265 261 260 258 257 256 253 249 246 246 248 247 244 243 240 238 239 240 240 243 246 243 242 243 243 243 243 243 242 241 241 240 238 238 237 236 235 234 234 234 233 234 234 235 236 236 237 239 241 243 244 245 246
310 312 314 315 317 319 320 321 321 319 316 313 310 308 305 301 299 297 294 289 285 282 282 283 282 280 279 277 274 270 268 268 266 263 260 259 258 258 255 251 249 248 248 248 245 241 240 239 239 239 238 240 246 247 244 242 243 244 243 244 244 243 242 242 241 239 238 237 235 234 234 234 234 234 234 235 236 237 238 239 240 242 243 245 246
309 311 312 314 316 318 319 320 320 319 316 312 310 307 304 301 297 295 292 289 286 283 281 281 283 283 281 280 276 271 268 265 264 263 261 258 256 256 256 253 251 250 250 250 246 240 239 239 239 239 238 239 245 248 246 242 243 244 244 245 245 245 244 244 243 241 239 238 236 235 234 234 234 234 234 235 236 238 239 239 239 240 242 244 246
309 310 312 313 315 317 319 319 319 318 315 312 309 307 304 301 297 293 290 288 287 286 284 283 283 284 283 280 278 275 269 265 264 262 262 261 257 253 254 254 252 252 254 252 244 237 239 240 239 240 239 240 244 249 247 243 243 243 244 245 245 245 245 244 244 243 240 238 237 235 235 235 235 235 235 235 236 238 239 239 240 240 242 244 246
309 310 312 314 316 318 319 319 319 318 315 312 309 307 304 301 297 292 289 288 287 287 286 285 284 284 283 281 279 278 273 268 265 262 260 260 259 254 252 252 251 251 254 254 244 238 241 242 240 240 239 239 243 248 246 242 242 244 244 246 246 245 244 244 244 244 242 239 237 236 235 234 235 235 235 235 236 237 239 240 241 241 242 244 246
310 311 313 315 317 319 320 320 319 318 315 312 309 307 304 300 295 291 288 287 287 287 286 286 285 283 281 279 278 277 274 270 267 264 260 257 256 255 253 252 250 247 249 251 245 239 241 242 240 239 239 241 244 246 245 241 241 243 244 246 247 245 244 244 244 245 243 239 237 237 236 234 235 235 236 236 236 237 239 241 242 243 243 245 246
311 312 314 316 318 320 320 319 319 317 315 312 309 307 304 299 295 291 288 287 287 287 287 287 286 283 280 278 277 275 273 270 268 266 263 257 254 253 254 252 250 246 246 248 246 240 239 242 240 237 238 244 247 246 244 242 240 242 243 245 247 248 246 244 244 245 244 241 237 236 236 234 234 235 236 236 237 237 239 241 243 244 245 246 247
313 314 316 318 319 320 320 319 318 316 314 311 309 307 304 300 296 292 289 287 286 286 287 286 285 283 280 278 277 275 273 270 267 265 264 261 255 252 252 252 250 248 245 245 245 241 237 239 240 238 238 243 248 247 245 243 241 241 242 244 246 249 248 245 243 244 245 242 238 236 236 234 233 234 235 236 237 238 239 241 243 244 246 247 248
315 316 317 318 319 320 320 319 318 316 313 312 310 307 303 300 298 295 291 289 287 286 286 285 283 282 280 278 277 276 274 270 267 265 264 263 259 253 251 250 250 250 247 245 246 244 237 235 238 238 238 241 247 249 246 244 243 242 243 244 246 248 249 246 243 243 243 242 240 237 235 234 232 233 235 236 238 238 239 241 243 244 246 247 248
316 317 318 319 320 321 320 319 318 316 313 312 310 306 303 301 299 297 294 291 288 287 286 285 284 283 281 279 277 277 277 273 269 266 264 263 261 256 252 250 248 248 247 247 248 247 241 237 237 238 238 239 245 249 248 246 245 244 244 245 246 247 248 247 244 244 243 243 242 238 235 235 234 234 236 237 238 239 240 241 242 244 245 246 248
317 318 319 320 320 321 320 318 317 316 314 313 310 306 304 303 300 297 295 293 291 289 288 287 286 286 284 282 280 279 278 275 270 267 264 262 262 258 253 249 247 246 246 245 246 247 244 239 238 238 237 238 243 247 248 248 247 247 246 245 246 248 247 246 244 244 244 244 243 240 236 235 235 235 236 237 239 240 241 241 242 243 244 246 247
318 319 321 321 321 320 319 318 317 316 314 312 309 305 304 303 300 297 296 294 293 292 291 290 289 290 288 286 284 282 280 277 270 266 265 261 259 258 254 249 246 245 244 243 244 246 244 240 238 238 237 239 243 246 247 248 248 248 246 245 246 247 246 244 244 244 243 242 242 240 237 236 237 236 236 237 238 239 240 241 242 243 244 245 247
319 320 322 322 320 320 319 318 317 315 313 310 306 304 304 302 300 298 297 296 296 295 294 292 291 292 292 291 289 286 283 278 270 266 266 263 258 257 255 249 244 242 242 241 243 246 244 239 238 238 238 239 243 244 245 246 247 247 246 244 245 245 244 241 241 243 243 241 240 239 237 236 236 237 237 237 238 239 240 241 242 243 244 245 247
320 321 322 321 320 319 318 317 317 315 313 310 307 305 305 304 301 299 298 297 298 297 296 295 293 294 295 294 292 291 286 279 272 269 268 265 258 255 254 250 243 241 240 239 242 246 243 238 236 237 238 239 241 243 242 243 246 247 246 244 244 244 241 238 238 241 242 242 239 238 239 238 237 237 238 238 239 239 240 241 242 243 244 245 247
320 321 321 320 319 318 318 318 317 315 313 311 309 308 308 306 303 301 300 299 300 299 298 297 297 297 298 297 295 294 288 279 273 271 270 266 259 255 254 251 245 241 239 238 240 244 242 236 233 234 236 237 240 242 239 240 244 246 244 243 244 244 241 237 236 239 241 242 240 239 242 244 241 240 240 239 239 239 239 240 242 243 244 245 246
320 321 320 319 318 319 319 318 317 315 314 313 312 311 311 309 306 304 304 304 303 302 300 299 300 301 302 300 298 295 288 280 275 274 272 266 259 254 253 252 247 242 240 238 238 242 242 235 232 233 234 235 239 241 238 238 242 243 242 242 244 244 241 237 236 238 240 240 240 239 242 245 245 243 242 241 239 239 239 240 242 244 244 244 245
320 320 319 318 319 319 319 318 316 314 313 313 313 313 311 309 308 308 308 307 306 304 302 302 304 306 305 304 302 297 289 281 278 277 273 266 260 255 252 251 247 242 241 238 236 240 241 236 233 233 233 233 237 240 239 236 238 241 240 239 241 243 242 238 236 237 238 238 239 240 241 244 246 245 244 243 241 240 239 240 242 243 244 245 246
320 319 318 319 319 319 319 318 315 313 312 314 314 313 312 310 309 310 309 309 308 305 304 306 308 309 308 307 306 301 293 286 281 277 271 264 261 257 252 250 247 242 239 236 234 237 240 236 233 232 233 234 237 240 239 235 235 238 238 237 239 241 241 238 236 236 237 237 237 239 241 244 246 246 245 243 242 240 239 239 241 243 245 246 248
319 318 318 319 319 319 319 317 315 312 313 315 315 314 312 311 311 312 312 310 309 307 307 308 310 310 309 310 309 305 297 293 287 277 267 260 258 256 253 250 247 242 237 234 233 235 237 236 234 232 233 237 239 241 240 237 235 237 237 237 239 240 240 239 238 236 235 235 236 238 241 245 246 246 245 243 242 241 240 240 241 244 246 248 249
317 317 318 319 320 320 319 317 314 313 313 314 316 315 313 314 316 316 315 313 310 309 309 309 308 309 310 312 313 309 301 298 294 280 264 257 256 254 252 250 245 240 236 232 231 233 234 235 234 231 232 236 238 239 240 238 237 237 236 237 238 239 239 239 238 236 233 233 235 238 241 245 245 245 244 243 241 241 241 241 242 244 246 247 248
316 317 318 319 320 321 319 316 314 313 312 313 315 314 315 318 320 321 318 315 312 311 312 311 309 310 312 313 315 313 306 302 300 286 266 257 254 251 250 250 245 240 237 233 232 233 233 234 234 232 232 235 238 239 239 238 239 239 237 236 237 237 237 238 238 237 234 234 235 236 240 244 245 245 243 242 241 240 240 241 241 243 245 246 248
316 317 318 319 321 321 318 316 315 314 313 313 313 313 315 318 321 322 320 316 314 313 313 312 311 312 314 316 317 316 311 306 302 292 272 259 254 250 248 248 244 239 238 236 234 233 233 233 234 234 235 238 242 243 240 237 237 238 237 235 235 236 236 237 238 238 236 235 234 235 238 241 243 244 242 241 240 240 239 239 240 242 245 246 247
316 317 318 320 321 320 317 316 317 315 312 311 311 310 312 316 319 322 320 317 317 317 314 312 314 316 317 319 320 320 315 311 307 298 281 263 256 253 248 243 239 236 236 237 236 235 234 233 233 234 237 240 244 246 242 236 234 235 237 235 234 234 234 235 237 238 237 236 234 235 238 239 240 241 240 240 241 240 239 240 239 241 244 246 247
316 317 318 319 320 318 316 316 316 313 310 310 310 309 310 314 318 319 318 316 316 317 316 316 319 321 321 321 323 323 319 314 313 305 290 269 257 255 249 240 235 234 233 235 236 236 235 233 232 233 235 239 243 245 242 238 235 236 238 236 233 233 233 233 236 238 237 235 234 234 237 239 239 239 239 239 241 241 241 240 239 240 242 245 246
315 316 316 318 318 315 313 314 315 313 309 308 310 311 310 313 316 316 315 315 316 318 319 321 323 324 325 325 326 327 324 318 316 310 297 279 263 256 250 239 233 232 233 233 235 235 235 233 232 232 233 236 240 241 240 238 236 236 238 237 234 234 234 233 234 236 237 236 234 234 236 238 238 238 239 240 240 240 241 241 239 239 241 243 245
Height
5917 5916 5916 5915 5914 5913 5912 5911 5911 5911 5912 5912 5911 5910 5910 5909 5910 5910 5911 5911 5911 5911 5912 5911 5911 5911 5911 5911 5910 5909 5908 5907 5907 5908 5909 5911 5912 5913 5914 5914 5915 5916 5916 5917 5918 5918 5919 5920 5921 5922 5922 5922 5923 5923 5924 5924 5924 5924 5924 5925 5925 5925 5925 5925 5926 5926 5926 5926 5926 5927 5927 5927 5927 5928 5928 5927 5927 5927 5926 5926 5925 5925 5925 5924 5924
5915 5914 5914 5913 5912 5912 5911 5910 5909 5909 5910 5910 5910 5909 5908 5908 5908 5908 5909 5909 5909 5909 5909 5910 5910 5909 5909 5909 5909 5908 5907 5906 5906 5906 5907 5908 5910 5911 5912 5913 5913 5914 5915 5916 5916 5917 5918 5919 5920 5921 5921 5921 5922 5922 5923 5923 5924 5924 5924 5924 5924 5925 5925 5925 5925 5926 5926 5926 5926 5927 5927 5927 5927 5928 5928 5928 5928 5927 5927 5926 5926 5925 5925 5925 5925
5914 5913 5912 5911 5911 5911 5910 5909 5908 5908 5908 5908 5909 5908 5907 5907 5907 5907 5907 5907 5907 5907 5907 5908 5908 5908 5907 5907 5907 5907 5906 5906 5905 5904 5905 5906 5907 5909 5910 5911 5912 5912 5913 5914 5915 5916 5916 5917 5918 5919 5920 5921 5921 5921 5922 5922 5923 5923 5923 5923 5924 5924 5924 5925 5925 5925 5926 5926 5926 5926 5927 5927 5927 5928 5928 5928 5928 5928 5927 5927 5926 5926 5925 5925 5925
5913 5912 5911 5910 5910 5910 5909 5908 5907 5906 5906 5906 5906 5906 5906 5905 5905 5905 5905 5905 5904 5904 5905 5905 5905 5905 5905 5905 5905 5905 5905 5904 5904 5903 5903 5904 5905 5907 5908 5909 5910 5911 5911 5912 5913 5914 5915 5916 5917 5918 5919 5919 5920 5920 5920 5921 5922 5922 5923 5923 5923 5923 5924 5924 5925 5925 5925 5926 5926 5926 5926 5927 5927 5927 5928 5928 5928 5928 5928 5927 5927 5926 5926 5925 5925
5911 5910 5909 5908 5908 5908 5908 5907 5906 5905 5904 5904 5904 5904 5904 5904 5903 5902 5902 5902 5902 5902 5902 5902 5902 5903 5903 5903 5903 5903 5903 5903 5902 5901 5901 5901 5902 5904 5905 5907 5908 5909 5909 5911 5912 5913 5913 5914 5915 5916 5917 5918 5919 5919 5919 5920 5921 5921 5922 5922 5922 5923 5923 5923 5924 5925 5925 5925 5926 5926 5926 5926 5927 5927 5927 5927 5928 5928 5928 5928 5927 5927 5926 5926 5926
5911 5909 5908 5907 5906 5906 5905 5905 5904 5903 5902 5902 5901 5901 5901 5901 5900 5899 5899 5899 5899 5899 5900 5900 5900 5900 5900 5900 5900 5900 5901 5901 5900 5900 5899 5899 5900 5901 5902 5904 5906 5906 5907 5908 5910 5911 5911 5912 5913 5914 5915 5916 5917 5918 5918 5919 5919 5920 5921 5921 5922 5922 5922 5923 5923 5924 5925 5925 5925 5926 5926 5926 5926 5926 5927 5927 5927 5928 5928 5928 5928 5928 5927 5927 5926
5910 5908 5906 5905 5904 5904 5903 5903 5902 5901 5900 5899 5899 5899 5898 5898 5897 5897 5897 5897 5897 5897 5897 5897 5898 5898 5897 5897 5897 5897 5898 5898 5898 5898 5897 5897 5897 5898 5899 5900 5902 5903 5904 5906 5907 5908 5909 5910 5911 5912 5913 5914 5915 5916 5917 5917 5918 5918 5919 5920 5921 5921 5922 5922 5922 5923 5924 5924 5925 5925 5925 5925 5926 5926 5926 5927 5927 5927 5928 5928 5928 5928 5928 5927 5927
5908 5907 5905 5903 5902 5901 5901 5901 5900 5900 5898 5897 5896 5896 5895 5894 5894 5894 5894 5894 5895 5895 5895 5895 5894 5895 5895 5895 5895 5895 5895 5895 5895 5895 5894 5895 5895 5895 5896 5897 5898 5899 5901 5903 5904 5905 5907 5908 5909 5910 5911 5912 5913 5914 5915 5916 5916 5917 5918 5918 5919 5920 5921 5921 5921 5922 5923 5923 5924 5924 5925 5925 5925 5925 5926 5926 5926 5927 5927 5927 5928 5928 5928 5928 5927
5907 5905 5903 5901 5900 5899 5898 5898 5898 5898 5896 5895 5894 5893 5892 5891 5891 5891 5891 5891 5891 5891 5892 5892 5891 5891 5892 5892 5892 5892 5892 5892 5892 5891 5891 5892 5892 5892 5893 5893 5894 5895 5897 5899 5900 5902 5904 5905 5906 5907 5908 5910 5911 5912 5912 5913 5914 5915 5916 5917 5917 5918 5919 5920 5920 5921 5922 5922 5923 5923 5924 5924 5924 5925 5925 5926 5926 5926 5927 5927 5927 5928 5928 5928 5928
5905 5903 5901 5900 5898 5897 5896 5895 5895 5894 5893 5892 5891 5890 5889 5889 5888 5887 5887 5887 5887 5887 5888 5888 5888 5888 5888 5888 5889 5889 5889 5889 5889 5888 5888 5889 5889 5889 5890 5890 5891 5892 5893 5895 5896 5898 5900 5902 5903 5904 5906 5907 5908 5909 5910 5911 5912 5913 5914 5915 5916 5917 5917 5918 5919 5920 5920 5921 5922 5922 5923 5923 5924 5924 5924 5925 5925 5926 5926 5926 5927 5927 5927 5928 5928
5903 5901 5901 5899 5897 5896 5894 5893 5892 5890 5889 5889 5888 5888 5887 5886 5886 5885 5884 5884 5884 5883 5883 5883 5884 5884 5884 5884 5884 5885 5887 5887 5886 5886 5885 5885 5886 5886 5887 5887 5888 5889 5890 5891 5892 5894 5896 5898 5899 5901 5902 5904 5905 5906 5907 5908 5909 5911 5912 5913 5914 5915 5916 5917 5917 5918 5919 5920 5921 5921 5922 5922 5923 5923 5924 5924 5924 5925 5925 5926 5926 5926 5927 5927 5927
5902 5900 5899 5898 5896 5894 5893 5891 5890 5888 5886 5885 5885 5884 5883 5883 5882 5882 5881 5881 5881 5880 5879 5879 5879 5881 5881 5880 5880 5881 5882 5883 5883 5883 5882 5882 5883 5884 5884 5884 5885 5886 5886 5887 5889 5890 5892 5894 5896 5897 5899 5900 5902 5903 5904 5905 5907 5908 5909 5911 5912 5913 5914 5915 5915 5916 5917 5918 5919 5920 5921 5921 5922 5922 5923 5923 5924 5924 5925 5925 5925 5925 5926 5926 5927
5901 5898 5896 5895 5894 5892 5890 5889 5888 5885 5884 5882 5881 5880 5879 5879 5879 5878 5878 5878 5878 5877 5875 5874 5875 5876 5876 5875 5876 5877 5878 5878 5879 5879 5879 5878 5879 5880 5881 5881 5882 5882 5882 5883 5884 5886 5888 5890 5892 5894 5895 5896 5898 5899 5901 5902 5903 5905 5906 5908 5909 5910 5912 5913 5913 5914 5915 5916 5917 5918 5919 5920 5921 5921 5922 5922 5923 5923 5924 5924 5924 5925 5925 5925 5926
5899 5898 5895 5893 5891 5890 5888 5886 5885 5883 5881 5879 5878 5877 5875 5875 5875 5875 5875 5874 5874 5872 5871 5871 5871 5871 5870 5871 5874 5874 5873 5873 5875 5875 5874 5874 5875 5876 5878 5878 5879 5879 5880 5880 5881 5882 5884 5886 5888 5890 5891 5892 5894 5896 5897 5899 5900 5902 5903 5904 5906 5908 5909 5910 5911 5912 5914 5914 5915 5916 5918 5919 5919 5920 5921 5921 5922 5922 5923 5923 5924 5924 5924 5924 5925
5896 5896 5894 5892 5890 5888 5886 5884 5882 5880 5878 5876 5874 5873 5871 5870 5870 5870 5870 5870 5870 5869 5867 5867 5868 5867 5865 5867 5869 5868 5868 5869 5870 5870 5869 5870 5871 5872 5874 5875 5875 5876 5877 5878 5879 5879 5881 5882 5884 5886 5887 5888 5890 5892 5894 5896 5897 5898 5899 5901 5903 5905 5906 5908 5909 5910 5911 5912 5913 5914 5916 5917 5918 5919 5920 5920 5921 5921 5922 5922 5923 5923 5923 5923 5924
5894 5893 5892 5891 5889 5887 5885 5883 5881 5878 5876 5874 5871 5869 5867 5866 5865 5864 5864 5865 5866 5865 5863 5863 5864 5862 5861 5863 5863 5862 5864 5865 5864 5865 5865 5867 5868 5868 5869 5871 5872 5872 5873 5875 5875 5876 5877 5879 5880 5882 5883 5885 5886 5888 5890 5892 5894 5894 5896 5897 5899 5901 5903 5905 5906 5908 5909 5910 5911 5912 5913 5915 5916 5917 5918 5919 5919 5920 5920 5921 5921 5922 5922 5922 5922
5893 5891 5889 5888 5886 5885 5883 5881 5879 5877 5874 5872 5870 5867 5864 5862 5861 5860 5860 5859 5860 5860 5859 5859 5859 5858 5857 5859 5858 5857 5860 5859 5858 5861 5862 5863 5864 5865 5866 5867 5868 5868 5869 5871 5871 5872 5874 5875 5877 5878 5879 5881 5883 5885 5886 5888 5889 5891 5892 5894 5895 5897 5899 5901 5903 5905 5906 5907 5909 5910 5911 5912 5914 5915 5916 5917 5918 5918 5919 5919 5920 5920 5921 5921 5921
5892 5890 5888 5886 5884 5883 5881 5879 5877 5875 5872 5869 5867 5864 5862 5859 5857 5857 5857 5856 5856 5856 5855 5854 5854 5854 5853 5854 5854 5853 5855 5854 5854 5857 5857 5857 5860 5861 5862 5862 5863 5863 5864 5866 5867 5868 5870 5872 5873 5874 5876 5877 5878 5880 5882 5884 5885 5887 5889 5890 5892 5893 5895 5897 5899 5901 5903 5904 5906 5908 5909 5910 5911 5912 5914 5915 5915 5916 5917 5918 5918 5919 5919 5919 5920
5890 5888 5886 5884 5882 5880 5878 5876 5874 5871 5869 5866 5863 5861 5858 5856 5854 5853 5853 5852 5852 5852 5851 5850 5850 5850 5848 5848 5849 5849 5850 5849 5850 5851 5851 5853 5855 5856 5857 5857 5858 5859 5859 5862 5863 5863 5866 5867 5868 5870 5872 5873 5874 5876 5878 5879 5881 5883 5885 5887 5888 5890 5891 5893 5895 5897 5899 5901 5903 5904 5906 5907 5908 5909 5911 5912 5913 5914 5915 5916 5916 5917 5918 5918 5918
5888 5886 5884 5882 5879 5877 5874 5872 5870 5868 5865 5863 5860 5858 5855 5852 5850 5849 5848 5847 5847 5846 5846 5846 5846 5847 5845 5843 5844 5845 5845 5844 5845 5846 5846 5848 5850 5850 5851 5852 5853 5853 5854 5856 5858 5858 5860 5862 5864 5866 5868 5869 5871 5872 5873 5875 5877 5879 5881 5883 5884 5886 5887 5889 5891 5893 5895 5897 5899 5901 5902 5904 5905 5906 5908 5909 5910 5912 5913 5913 5914 5915 5916 5916 5917
5885 5883 5881 5878 5876 5873 5871 5869 5866 5864 5861 5859 5857 5854 5851 5849 5846 5844 5843 5842 5842 5841 5841 5841 5841 5842 5841 5839 5840 5840 5840 5839 5839 5841 5841 5843 5845 5845 5845 5846 5847 5849 5851 5852 5853 5854 5855 5857 5859 5861 5862 5865 5867 5868 5870 5871 5872 5874 5876 5879 5880 5882 5883 5885 5887 5889 5891 5893 5895 5897 5899 5901 5902 5903 5904 5906 5907 5909 5910 5911 5912 5913 5913 5914 5915
5882 5880 5878 5875 5873 5870 5867 5865 5862 5860 5857 5855 5852 5850 5848 5846 5843 5841 5839 5838 5837 5837 5836 5836 5836 5836 5835 5835 5835 5835 5834 5834 5835 5836 5837 5837 5838 5841 5841 5840 5841 5845 5847 5848 5849 5850 5851 5852 5855 5857 5858 5861 5863 5864 5866 5867 5868 5870 5871 5874 5876 5877 5879 5880 5882 5884 5886 5889 5891 5893 5895 5897 5899 5900 5901 5903 5904 5906 5907 5908 5909 5910 5911 5912 5912
5878 5876 5874 5872 5870 5867 5863 5860 5857 5855 5852 5850 5847 5845 5843 5842 5841 5838 5836 5834 5833 5832 5831 5831 5831 5830 5829 5829 5829 5829 5829 5830 5830 5831 5832 5831 5832 5835 5837 5836 5837 5840 5841 5843 5844 5845 5847 5848 5850 5852 5854 5856 5858 5859 5862 5863 5864 5866 5867 5868 5871 5873 5874 5876 5877 5879 5882 5884 5887 5889 5891 5893 5895 5897 5898 5900 5901 5902 5904 5905 5906 5907 5908 5909 5910
5874 5872 5870 5868 5866 5863 5860 5856 5853 5851 5848 5845 5843 5841 5839 5837 5837 5835 5832 5830 5829 5828 5827 5826 5826 5825 5824 5823 5823 5823 5823 5825 5825 5825 5826 5826 5826 5829 5832 5832 5832 5834 5836 5838 5839 5840 5842 5844 5846 5847 5848 5850 5853 5855 5857 5859 5860 5861 5862 5863 5865 5868 5870 5872 5874 5875 5877 5880 5882 5885 5887 5889 5891 5893 5895 5896 5898 5899 5901 5902 5903 5904 5905 5906 5907
5871 5869 5867 5864 5862 5860 5857 5854 5850 5847 5844 5841 5839 5836 5834 5832 5831 5830 5828 5826 5824 5823 5822 5821 5821 5820 5819 5818 5818 5818 5818 5819 5819 5820 5820 5822 5821 5823 5827 5827 5826 5829 5830 5831 5834 5835 5837 5840 5841 5842 5843 5844 5847 5850 5852 5854 5856 5857 5858 5859 5861 5863 5865 5867 5870 5872 5874 5876 5878 5881 5883 5885 5887 5889 5891 5893 5894 5896 5897 5899 5900 5901 5902 5903 5904
5868 5866 5864 5861 5859 5857 5854 5851 5848 5844 5841 5839 5836 5833 5831 5828 5826 5825 5824 5822 5820 5819 5818 5816 5815 5814 5813 5814 5814 5814 5812 5812 5813 5814 5814 5816 5817 5818 5820 5820 5821 5824 5824 5824 5827 5829 5832 5835 5836 5837 5839 5840 5842 5845 5846 5848 5851 5852 5853 5854 5856 5858 5860 5863 5865 5868 5870 5872 5874 5877 5879 5881 5883 5885 5887 5889 5891 5892 5894 5895 5897 5898 5899 5900 5901
5865 5863 5860 5858 5856 5853 5851 5848 5845 5842 5839 5835 5833 5830 5828 5825 5822 5821 5819 5818 5816 5814 5813 5812 5811 5809 5808 5808 5809 5808 5807 5806 5807 5808 5809 5810 5811 5812 5813 5814 5816 5817 5817 5818 5821 5823 5826 5829 5830 5832 5835 5836 5837 5839 5842 5843 5845 5848 5849 5850 5852 5854 5856 5859 5861 5863 5865 5867 5870 5872 5875 5877 5879 5881 5884 5886 5887 5889 5890 5892 5894 5895 5896 5897 5898
5862 5859 5857 5854 5852 5850 5847 5845 5842 5838 5835 5832 5829 5826 5824 5822 5819 5817 5815 5813 5812 5810 5808 5807 5805 5805 5804 5803 5803 5803 5803 5802 5801 5801 5802 5803 5804 5805 5806 5808 5809 5811 5811 5812 5815 5818 5821 5824 5825 5827 5830 5832 5833 5834 5836 5838 5841 5843 5845 5846 5848 5850 5852 5854 5856 5859 5861 5863 5865 5867 5870 5872 5875 5877 5880 5882 5884 5886 5887 5888 5890 5891 5893 5894 5895
5858 5855 5853 5851 5848 5846 5843 5841 5838 5835 5831 5828 5825 5822 5820 5817 5815 5813 5810 5809 5807 5806 5804 5802 5800 5799 5799 5798 5798 5798 5797 5796 5795 5795 5795 5796 5797 5798 5798 5800 5802 5803 5804 5806 5809 5812 5816 5818 5820 5822 5825 5827 5829 5830 5831 5834 5836 5838 5839 5841 5843 5846 5848 5850 5851 5853 5856 5858 5860 5863 5865 5868 5871 5873 5875 5878 5880 5882 5883 5885 5886 5887 5889 5890 5891
5854 5851 5849 5846 5844 5842 5839 5836 5834 5831 5827 5824 5820 5817 5814 5812 5810 5808 5806 5804 5802 5801 5799 5797 5795 5794 5793 5792 5792 5792 5791 5789 5789 5789 5790 5791 5791 5791 5791 5793 5794 5796 5798 5801 5804 5808 5810 5812 5815 5817 5819 5822 5824 5826 5827 5829 5832 5833 5834 5837 5839 5841 5843 5845 5846 5848 5850 5853 5855 5858 5861 5863 5866 5869 5871 5873 5875 5877 5879 5881 5882 5883 5885 5886 5888
5849 5847 5844 5842 5839 5837 5834 5831 5828 5825 5822 5819 5815 5812 5809 5807 5804 5802 5801 5799 5797 5796 5794 5792 5790 5788 5787 5787 5786 5785 5784 5783 5782 5783 5784 5785 5786 5786 5787 5788 5789 5791 5794 5795 5799 5803 5805 5806 5809 5811 5813 5816 5818 5820 5821 5824 5827 5828 5830 5832 5834 5836 5838 5840 5842 5843 5845 5848 5850 5853 5856 5858 5861 5864 5866 5869 5871 5873 5875 5876 5878 5880 5881 5883 5884
5845 5842 5840 5837 5834 5831 5828 5825 5822 5819 5816 5813 5809 5807 5804 5802 5799 5797 5795 5793 5791 5790 5788 5787 5786 5784 5782 5781 5780 5779 5778 5778 5776 5776 5777 5779 5780 5781 5782 5783 5785 5787 5789 5789 5793 5799 5800 5800 5803 5806 5807 5809 5812 5814 5816 5819 5821 5823 5825 5827 5829 5831 5833 5835 5837 5839 5840 5842 5845 5848 5851 5853 5856 5859 5861 5864 5866 5868 5870 5872 5874 5876 5877 5879 5880
5840 5837 5835 5832 5829 5826 5822 5819 5816 5813 5809 5806 5803 5801 5799 5796 5794 5792 5790 5788 5786 5784 5783 5782 5781 5779 5776 5775 5774 5773 5772 5772 5771 5770 5770 5771 5773 5774 5775 5777 5780 5781 5782 5782 5786 5793 5796 5795 5797 5800 5802 5803 5805 5808 5811 5814 5816 5818 5820 5822 5824 5826 5829 5831 5833 5834 5835 5837 5840 5843 5845 5848 5850 5854 5856 5859 5861 5863 5865 5867 5870 5872 5874 5875 5876
5836 5833 5829 5827 5824 5821 5817 5814 5811 5807 5804 5800 5797 5795 5792 5790 5788 5786 5785 5784 5781 5779 5777 5776 5775 5773 5771 5769 5767 5767 5766 5766 5766 5764 5764 5764 5765 5767 5768 5770 5773 5774 5775 5776 5778 5783 5789 5790 5790 5793 5796 5798 5800 5803 5806 5808 5811 5813 5815 5817 5820 5822 5824 5826 5828 5830 5831 5833 5835 5838 5840 5843 5845 5848 5851 5854 5856 5858 5860 5863 5865 5867 5869 5870 5872
5831 5828 5825 5822 5819 5816 5813 5809 5806 5802 5798 5795 5792 5789 5786 5784 5782 5781 5779 5778 5776 5774 5772 5770 5769 5768 5765 5763 5761 5760 5760 5760 5760 5759 5758 5757 5757 5759 5761 5762 5765 5767 5769 5770 5770 5774 5780 5784 5785 5786 5790 5792 5795 5798 5800 5802 5805 5807 5810 5812 5815 5817 5819 5821 5823 5825 5827 5828 5830 5833 5835 5838 5840 5843 5846 5848 5851 5853 5856 5858 5861 5863 5864 5865 5867
5826 5823 5820 5817 5813 5811 5808 5804 5801 5797 5793 5789 5787 5783 5780 5778 5776 5774 5773 5772 5771 5769 5767 5764 5763 5762 5760 5757 5755 5754 5754 5753 5753 5753 5752 5751 5751 5752 5753 5755 5757 5760 5763 5764 5765 5768 5772 5777 5780 5781 5783 5787 5790 5793 5794 5796 5799 5802 5805 5807 5809 5811 5814 5817 5818 5820 5823 5825 5826 5828 5831 5833 5836 5838 5841 5844 5846 5849 5851 5854 5856 5857 5859 5860 5862
5821 5818 5815 5812 5808 5805 5802 5799 5795 5792 5787 5784 5781 5778 5775 5772 5771 5768 5767 5767 5766 5764 5762 5759 5757 5755 5754 5752 5749 5748 5748 5747 5747 5746 5745 5745 5745 5745 5746 5748 5750 5753 5757 5759 5760 5762 5766 5771 5774 5775 5778 5781 5785 5788 5789 5791 5794 5797 5800 5802 5804 5807 5809 5812 5814 5816 5819 5822 5823 5824 5826 5829 5831 5834 5836 5839 5841 5844 5846 5849 5850 5852 5853 5855 5857
5815 5812 5809 5806 5803 5799 5797 5793 5790 5787 5784 5780 5776 5773 5770 5767 5766 5764 5762 5762 5760 5759 5757 5754 5751 5749 5748 5746 5743 5742 5741 5741 5740 5739 5739 5739 5739 5738 5740 5742 5744 5747 5750 5752 5754 5756 5760 5764 5767 5769 5772 5775 5779 5782 5784 5787 5789 5791 5794 5797 5799 5802 5805 5807 5809 5811 5814 5817 5818 5819 5821 5824 5827 5829 5831 5834 5836 5839 5841 5843 5845 5846 5848 5850 5852
5810 5807 5803 5800 5797 5794 5791 5787 5784 5782 5779 5776 5772 5769 5766 5763 5761 5759 5758 5756 5755 5754 5752 5749 5747 5744 5742 5740 5738 5736 5735 5734 5733 5733 5732 5731 5732 5732 5733 5735 5737 5739 5742 5745 5747 5750 5754 5758 5761 5764 5767 5770 5773 5775 5779 5782 5783 5785 5788 5791 5794 5797 5800 5803 5804 5806 5808 5811 5813 5814 5816 5819 5821 5824 5826 5828 5831 5834 5836 5838 5840 5842 5843 5845 5847
5806 5802 5798 5795 5791 5788 5785 5781 5778 5776 5773 5770 5767 5763 5761 5759 5757 5755 5753 5752 5750 5749 5747 5745 5742 5740 5738 5735 5733 5730 5728 5727 5727 5726 5726 5725 5725 5726 5726 5728 5730 5733 5736 5739 5741 5744 5748 5751 5755 5758 5761 5763 5766 5770 5773 5775 5777 5780 5783 5785 5788 5792 5795 5797 5799 5800 5803 5806 5809 5811 5813 5815 5817 5819 5821 5824 5827 5829 5831 5833 5835 5837 5839 5841 5842
5801 5798 5794 5790 5787 5783 5780 5776 5773 5770 5768 5765 5761 5758 5756 5754 5752 5751 5749 5747 5746 5745 5743 5740 5737 5735 5733 5730 5727 5725 5722 5721 5720 5720 5720 5719 5719 5719 5720 5721 5723 5726 5729 5733 5735 5737 5740 5744 5749 5752 5754 5757 5760 5763 5766 5769 5771 5775 5777 5779 5783 5786 5789 5792 5794 5796 5798 5801 5804 5807 5809 5811 5814 5815 5816 5819 5822 5824 5826 5828 5831 5833 5835 5836 5837
5796 5793 5790 5786 5782 5778 5774 5771 5768 5765 5763 5760 5757 5754 5752 5750 5748 5746 5745 5743 5742 5741 5739 5736 5733 5731 5729 5725 5722 5720 5717 5715 5714 5714 5714 5713 5713 5713 5713 5714 5716 5719 5721 5725 5729 5731 5733 5737 5742 5745 5746 5751 5754 5757 5761 5764 5767 5769 5771 5775 5779 5781 5783 5787 5790 5792 5794 5796 5800 5803 5805 5806 5809 5811 5812 5815 5817 5819 5821 5824 5827 5828 5830 5831 5832
5791 5788 5785 5781 5778 5774 5770 5766 5763 5761 5759 5756 5753 5751 5748 5746 5744 5743 5741 5740 5738 5736 5735 5733 5730 5727 5725 5721 5717 5715 5712 5710 5709 5708 5708 5707 5707 5707 5708 5708 5710 5712 5714 5718 5722 5725 5727 5730 5734 5737 5740 5745 5748 5751 5755 5759 5762 5763 5766 5770 5773 5775 5779 5783 5786 5787 5789 5792 5795 5798 5799 5801 5803 5806 5808 5810 5812 5814 5817 5820 5822 5824 5825 5826 5828
5786 5783 5780 5777 5773 5769 5766 5762 5759 5756 5754 5752 5750 5747 5745 5743 5742 5740 5738 5737 5735 5733 5731 5729 5726 5723 5721 5718 5714 5710 5708 5706 5704 5702 5702 5702 5702 5702 5702 5703 5704 5706 5708 5711 5716 5719 5722 5724 5727 5730 5735 5739 5743 5746 5750 5754 5757 5759 5762 5765 5768 5771 5774 5778 5781 5784 5785 5787 5789 5792 5795 5797 5799 5801 5804 5806 5807 5809 5812 5815 5817 5819 5820 5822 5824
5782 5779 5776 5772 5769 5765 5762 5758 5755 5753 5750 5748 5746 5744 5742 5740 5739 5737 5735 5733 5731 5729 5727 5725 5723 5720 5717 5714 5710 5707 5704 5701 5699 5698 5697 5697 5697 5697 5697 5698 5699 5700 5702 5706 5710 5713 5716 5719 5723 5726 5731 5735 5738 5742 5745 5748 5751 5754 5757 5760 5763 5767 5770 5773 5776 5779 5780 5781 5783 5787 5792 5794 5795 5797 5800 5801 5803 5805 5808 5811 5813 5814 5816 5817 5819
5778 5775 5771 5768 5765 5761 5758 5755 5752 5749 5747 5745 5743 5741 5739 5737 5735 5733 5732 5730 5728 5725 5723 5721 5719 5716 5713 5710 5707 5703 5700 5697 5694 5693 5692 5691 5692 5692 5693 5693 5694 5696 5697 5700 5703 5707 5710 5714 5718 5723 5727 5730 5733 5736 5739 5742 5745 5749 5752 5755 5758 5762 5765 5767 5770 5772 5774 5776 5779 5784 5787 5789 5791 5794 5796 5798 5799 5801 5804 5806 5808 5810 5811 5813 5815
5773 5770 5767 5764 5761 5758 5754 5751 5749 5746 5744 5741 5739 5737 5735 5734 5732 5730 5728 5726 5724 5722 5720 5718 5716 5713 5710 5706 5703 5700 5697 5694 5691 5689 5687 5687 5687 5688 5688 5689 5690 5691 5692 5695 5698 5701 5705 5709 5714 5719 5722 5724 5727 5730 5733 5736 5740 5744 5747 5750 5753 5755 5759 5761 5764 5767 5769 5772 5776 5780 5783 5785 5787 5790 5793 5795 5796 5798 5800 5802 5804 5806 5807 5809 5811
5769 5766 5762 5759 5756 5754 5751 5748 5746 5743 5740 5738 5736 5734 5732 5731 5729 5727 5725 5723 5721 5719 5717 5715 5712 5710 5706 5703 5699 5696 5693 5690 5687 5685 5683 5683 5682 5683 5684 5685 5686 5687 5689 5691 5693 5696 5700 5704 5709 5714 5718 5720 5722 5726 5728 5732 5736 5739 5741 5745 5748 5750 5754 5757 5759 5762 5764 5768 5772 5776 5778 5781 5783 5785 5789 5790 5791 5794 5796 5798 5800 5802 5803 5805 5806
5764 5761 5758 5755 5753 5750 5747 5745 5742 5739 5737 5735 5733 5731 5730 5728 5726 5724 5722 5720 5718 5716 5714 5712 5709 5706 5702 5699 5696 5692 5689 5687 5684 5681 5680 5679 5678 5678 5679 5680 5681 5683 5685 5687 5689 5692 5696 5700 5705 5710 5713 5715 5718 5721 5724 5727 5731 5733 5735 5740 5744 5746 5748 5752 5754 5757 5759 5763 5768 5770 5772 5776 5779 5781 5784 5785 5786 5789 5791 5793 5796 5798 5799 5800 5802
5760 5757 5754 5751 5749 5747 5744 5741 5739 5736 5734 5731 5730 5728 5727 5725 5723 5721 5719 5717 5715 5713 5711 5708 5705 5703 5699 5696 5692 5689 5687 5684 5681 5679 5676 5675 5674 5674 5675 5676 5677 5679 5680 5683 5686 5689 5692 5696 5700 5704 5708 5711 5713 5717 5719 5722 5726 5728 5731 5736 5739 5740 5743 5747 5749 5751 5754 5758 5763 5765 5767 5771 5774 5776 5779 5781 5782 5785 5787 5789 5792 5794 5795 5796 5798
5756 5754 5751 5748 5746 5743 5741 5738 5735 5733 5731 5728 5726 5725 5724 5723 5721 5719 5717 5715 5712 5710 5708 5705 5702 5699 5696 5693 5689 5686 5684 5681 5679 5677 5674 5671 5670 5670 5671 5673 5674 5675 5677 5679 5682 5685 5688 5692 5695 5699 5702 5706 5708 5711 5715 5718 5720 5723 5727 5731 5734 5735 5738 5742 5744 5746 5749 5754 5758 5760 5763 5766 5769 5771 5775 5777 5778 5781 5783 5785 5788 5790 5790 5792 5794